CAPE
910 731 790 1158 1619 45 154 237 289 343 588 517 39 27 0 0 0 0 10 5 23 102 519 1096 2517 2275 2103 2062 1931 1411 1408 1817 1818 1874 1633 1572 1820 1683 1839 1808 1835 2139 1972 1800 2011 1987 2263 2319 2249
695 799 1582 2578 232 1 194 269 269 424 583 306 86 61 0 0 0 21 9 87 129 267 419 1099 2568 2625 2246 2045 2098 1778 1716 1824 1821 1948 1848 1723 1698 1585 1786 1808 1638 1869 1907 2014 2094 2249 2099 2043 2053
1503 1912 2459 1921 125 58 216 422 497 610 794 740 597 384 168 0 0 0 6 24 132 250 341 1390 2702 2612 2264 1805 1994 1923 1890 1875 1649 1897 1869 1816 1763 1686 1923 1731 1678 1730 1772 2099 2239 2240 2238 2234 2201
2455 2408 2704 788 251 201 263 392 413 770 537 655 635 507 284 0 3 26 28 36 138 354 835 2151 2391 2247 2364 2235 2212 1879 1865 1950 1871 1785 1668 1190 1851 1763 1822 1621 1665 1671 1737 2127 2007 1898 2038 1809 1872
2438 2445 1373 72 120 5 309 352 722 744 674 713 733 507 21 6 35 33 43 140 183 643 1065 1625 2631 2509 2418 2252 2078 1964 1814 1735 1704 1656 1512 1421 1830 1626 1587 1580 1678 1627 1762 1807 1950 1694 1711 1765 1747
2826 2165 261 156 261 467 374 118 703 783 846 1031 899 667 576 92 47 104 266 441 863 998 1091 1434 1964 2480 2551 1997 2121 2195 1737 1682 2000 1539 1445 1318 903 1492 1550 1619 1653 1571 1579 1962 1793 1697 1550 1694 1474
2749 864 229 242 349 342 504 345 479 429 159 642 886 896 792 257 19 161 467 704 903 840 1049 1343 1445 1588 2032 2688 1982 1822 1812 1672 2063 1582 1479 1798 874 1216 1569 1224 1432 1636 1602 1746 1561 1635 1497 1447 1208
192 160 277 290 378 278 421 374 642 119 34 614 672 777 711 502 271 477 721 337 133 646 870 995 1572 1791 1660 1939 1672 1838 1883 1675 1605 1562 1272 1737 1158 336 629 1078 1110 1244 1351 1184 1582 1554 1588 1438 1415
101 178 197 236 537 656 230 194 110 639 596 618 706 703 852 610 709 825 821 205 217 603 234 617 1379 1469 1306 1342 1558 2209 1952 1707 1839 1561 1581 1890 548 266 330 347 835 691 1002 1246 1343 1404 1576 1448 1426
181 214 299 285 317 438 289 320 361 319 642 648 645 899 986 887 907 825 768 510 153 67 542 313 881 1179 767 1112 1031 1138 1071 1115 1374 1013 1403 646 255 22 105 146 584 959 1266 1377 1364 1098 940 936 841
207 256 255 346 435 524 496 496 349 403 745 561 610 681 789 785 772 802 753 798 121 37 133 391 267 388 759 510 112 164 1090 753 1026 1075 962 576 694 233 17 6 60 127 156 194 248 946 631 209 100
315 333 355 466 368 43 23 538 418 298 603 569 474 529 613 635 745 831 733 632 651 71 183 195 471 540 411 236 350 196 515 764 821 759 844 647 242 87 80 51 56 54 95 36 43 110 142 71 24
30 254 341 495 181 93 147 116 239 453 592 431 354 594 617 596 603 598 733 404 50 340 363 349 286 330 286 181 145 406 548 765 382 800 832 311 346 55 31 33 8 29 72 27 105 91 74 23 8
153 325 3 346 360 259 320 361 346 454 482 491 376 224 315 559 527 396 242 27 21 24 332 1377 848 763 575 710 453 801 888 567 125 696 528 419 233 83 121 102 36 1 10 9 76 60 35 51 48
4 108 1 51 214 22 541 538 454 429 505 406 382 275 213 178 221 61 7 0 0 7 660 987 992 721 606 496 790 599 814 816 783 497 632 427 281 185 237 214 216 165 217 54 6 13 27 167 201
34 15 8 137 394 122 263 469 490 449 469 422 412 337 271 248 135 52 17 0 0 0 299 921 1081 712 737 827 893 913 703 777 991 1055 337 252 262 557 743 649 575 545 298 145 55 39 0 2 22
3 62 18 130 178 187 163 0 144 524 454 443 454 362 302 312 176 171 224 260 86 102 37 161 742 765 745 1022 1332 971 914 967 972 55 148 179 277 640 819 570 554 722 553 547 485 161 59 0 0
4 28 104 127 1 129 618 796 858 542 510 560 559 490 391 364 328 241 492 289 104 111 379 490 874 1030 1150 149 3 241 786 1325 9 3 100 176 336 310 136 308 215 631 758 764 755 594 153 0 49
0 0 41 7 50 223 360 0 65 965 264 544 535 528 492 398 219 239 248 498 492 264 803 570 1317 972 55 0 0 296 907 1099 1245 782 296 215 339 223 148 389 557 286 279 562 602 636 619 515 301
12 52 6 178 187 144 221 0 0 505 136 418 408 480 442 395 356 361 211 509 230 595 753 645 838 1173 852 602 966 1240 1231 1388 1387 1140 1361 434 674 559 922 801 1090 893 896 897 870 938 580 378 277
18 42 43 79 74 45 248 140 0 0 6 276 409 373 385 364 470 431 474 347 130 0 10 267 347 1213 1681 1399 1453 1267 1169 1271 1036 1302 1295 1253 1676 1667 1623 1265 1319 1369 1645 1507 1126 1087 953 280 304
0 4 41 138 25 69 62 168 126 158 392 895 247 299 356 401 501 457 547 420 187 112 361 27 12 37 1841 1662 505 588 556 739 824 1109 700 1274 1612 1873 2070 1680 1824 1672 1579 1388 1090 1037 1050 898 692
0 1 5 17 22 6 2 167 98 30 4 100 0 147 418 497 565 815 740 497 358 175 92 0 23 109 1319 1169 1032 1131 873 284 580 626 267 240 1453 796 853 939 1358 945 655 642 901 989 948 681 755
0 0 0 0 0 0 86 83 82 140 193 125 1 1 54 124 646 656 647 93 17 58 19 113 178 468 1358 915 635 429 323 408 393 96 226 843 599 206 142 120 118 47 40 63 187 105 666 600 470
0 0 0 0 0 0 87 161 101 181 295 51 2 50 115 3 414 649 559 537 348 295 504 825 2007 2000 1111 238 513 102 0 1220 849 945 530 454 386 0 0 0 0 0 0 0 0 0 192 158 130
0 0 0 0 0 13 164 64 132 104 110 51 63 1 207 31 552 475 439 383 1431 2008 2302 2234 1935 1515 1092 918 1008 857 734 717 360 222 25 0 0 0 0 0 0 0 0 0 0 0 0 0 0
0 0 0 0 0 0 50 58 27 129 212 191 34 63 121 608 750 623 511 693 1652 2132 2024 1751 1711 1265 1065 1225 882 772 530 372 0 0 0 0 0 0 0 0 0 0 0 0 0 0 0 0 0
0 0 0 0 0 0 0 62 88 187 92 12 0 508 221 1184 1049 918 1060 1899 1994 2113 1857 1550 1404 1359 1250 1040 751 438 197 0 0 0 0 0 0 0 0 0 0 0 0 0 0 0 0 0 0
0 0 0 0 0 0 0 32 213 82 11 0 0 1148 1311 1507 1482 1685 1878 1646 1653 1588 1350 1286 1256 1079 728 591 478 152 0 0 0 0 0 0 0 0 0 0 0 0 0 0 0 0 0 0 8
0 0 0 0 0 0 0 21 282 25 24 4 176 1396 1621 1897 1830 1697 1643 1669 1391 1315 1138 977 749 620 376 127 2 0 0 0 0 0 0 0 0 0 0 0 0 0 0 0 0 0 0 0 0
CIN
-372 -362 -314 -184 -49 -150 -55 -17 -38 -27 -36 -53 -144 -113 -0 -0 -0 -0 -301 -303 -219 -137 -38 -7 -0 -0 -0 -0 -0 -0 -2 -0 -0 -0 -0 -0 -0 -0 -0 -0 -0 -0 -0 -0 -0 -0 -0 -0 -0
-398 -337 -161 -48 -76 -9 -44 -54 -66 -35 -54 -134 -148 -145 -0 -0 -0 -215 -301 -117 -82 -57 -52 -7 -0 -0 -0 -0 -0 -0 -0 -0 -0 -0 -0 -0 -0 -0 -0 -0 -0 -0 -0 -0 -0 -0 -0 -0 -0
-260 -124 -22 -66 -41 -57 -41 -28 -32 -9 -37 -40 -58 -97 -144 -0 -0 -0 -100 -167 -106 -68 -44 -4 -0 -0 -0 -0 -0 -0 -0 -0 -4 -1 -0 -1 -0 -1 -0 -0 -0 -0 -0 -0 -0 -0 -0 -0 -0
-125 -113 -34 -50 -15 -37 -60 -48 -12 -28 -54 -81 -84 -89 -141 -0 -35 -296 -203 -144 -85 -35 -14 -0 -0 -0 -0 -0 -0 -0 -0 -0 -0 -2 -2 -8 -0 -0 -0 -0 -0 -0 -0 -0 -0 -0 -0 -0 -4
-137 -69 -78 -38 -83 -65 -30 -16 -32 -52 -82 -69 -81 -73 -264 -45 -306 -259 -174 -91 -61 -16 -29 -8 -0 -0 -0 -0 -0 -0 -0 -0 -0 -2 -1 -3 -0 -0 -0 -2 -0 -0 -0 -0 -0 -0 -0 -0 -4
-89 -47 -67 -44 -11 -33 -8 -12 -39 -12 -19 -68 -91 -73 -57 -148 -244 -164 -89 -75 -30 -57 -35 -17 -0 -0 -0 -0 -0 -0 -0 -0 -0 -1 -1 -3 -10 -1 -2 -0 -0 -0 -0 -0 -0 -0 -0 -0 -10
-103 -25 -43 -42 -12 -20 -6 -32 -49 -164 -171 -38 -93 -61 -34 -105 -186 -132 -106 -64 -79 -43 -47 -32 -14 -3 -0 -0 -0 -0 -0 -0 -0 -2 -2 -0 -16 -6 -1 -8 -1 -0 -0 -0 -0 -0 -1 -6 -17
-51 -23 -52 -25 -16 -16 -15 -19 -98 -223 -145 -73 -97 -111 -61 -56 -69 -49 -36 -262 -313 -64 -41 -58 -10 -4 -6 -2 -6 -4 -2 -4 -1 -4 -10 -0 -11 -36 -20 -6 -5 -1 -0 -3 -0 -0 -0 -8 -17
-46 -54 -39 -31 -15 -15 -55 -47 -21 -31 -62 -16 -48 -145 -86 -50 -27 -14 -47 -182 -213 -125 -131 -66 -44 -36 -37 -35 -26 -5 -8 -7 -1 -5 -2 -5 -62 -61 -45 -21 -4 -8 -1 -1 -1 -0 -0 -0 -11
-44 -74 -16 -23 -26 -36 -61 -81 -15 -11 -14 -82 -112 -59 -37 -34 -37 -20 -21 -90 -176 -91 -125 -139 -55 -72 -63 -15 -29 -37 -43 -40 -29 -43 -24 -63 -95 -149 -84 -56 -17 -6 -0 -1 -2 -5 -11 -8 -24
-63 -46 -29 -25 -47 -43 -29 -17 -17 -49 -49 -99 -112 -81 -43 -55 -66 -66 -52 -64 -169 -119 -223 -108 -51 -67 -111 -191 -186 -157 -45 -55 -42 -40 -56 -77 -45 -58 -93 -135 -59 -65 -51 -53 -92 -15 -34 -119 -141
-29 -31 -32 -36 -34 -51 -97 -26 -47 -25 -46 -98 -137 -101 -58 -46 -51 -50 -53 -51 -99 -184 -109 -105 -117 -164 -200 -210 -194 -147 -106 -51 -53 -62 -51 -48 -58 -65 -94 -87 -87 -108 -110 -150 -191 -131 -110 -144 -202
-185 -34 -34 -55 -62 -71 -73 -97 -83 -82 -83 -106 -115 -104 -65 -51 -40 -43 -44 -34 -97 -58 -43 -50 -192 -242 -230 -185 -179 -104 -61 -61 -92 -56 -55 -93 -53 -59 -99 -84 -75 -141 -123 -166 -123 -142 -142 -156 -222
-54 -118 -183 -51 -71 -95 -97 -98 -74 -110 -141 -151 -127 -92 -61 -38 -40 -61 -65 -41 -72 -54 -70 -83 -160 -159 -177 -145 -86 -65 -53 -63 -140 -74 -76 -65 -68 -85 -58 -46 -87 -17 -124 -124 -105 -134 -138 -121 -130
-8 -127 -125 -173 -139 -26 -94 -101 -75 -134 -150 -156 -144 -85 -52 -47 -36 -69 -29 -0 -0 -70 -87 -108 -113 -144 -122 -73 -35 -50 -42 -83 -68 -85 -65 -54 -64 -81 -96 -100 -74 -41 -45 -93 -152 -197 -163 -65 -58
-145 -288 -434 -165 -139 -224 -190 -83 -122 -133 -169 -188 -149 -92 -35 -34 -41 -50 -104 -0 -0 -0 -116 -76 -52 -116 -117 -72 -50 -40 -60 -71 -55 -70 -109 -66 -49 -47 -30 -34 -33 -34 -50 -73 -117 -111 -30 -57 -138
-98 -271 -226 -267 -276 -245 -230 -65 -241 -130 -127 -147 -114 -52 -37 -17 -29 -46 -37 -67 -177 -230 -126 -105 -112 -117 -115 -105 -80 -69 -60 -46 -39 -152 -114 -93 -53 -37 -33 -48 -41 -31 -30 -25 -30 -101 -145 -66 -0
-140 -206 -166 -326 -29 -218 -184 -222 -177 -91 -99 -66 -69 -80 -27 -9 -25 -47 -37 -127 -161 -81 -90 -113 -84 -131 -135 -277 -95 -238 -88 -38 -204 -48 -138 -106 -89 -90 -124 -74 -101 -33 -16 -12 -15 -19 -98 -0 -135
-0 -0 -205 -156 -192 -130 -357 -3 -587 -260 -280 -77 -69 -122 -87 -45 -86 -102 -47 -102 -117 -166 -96 -93 -119 -202 -329 -0 -0 -200 -76 -53 -39 -118 -125 -133 -103 -118 -142 -76 -44 -66 -69 -35 -22 -18 -15 -20 -41
-63 -147 -88 -81 -53 -124 -524 -0 -0 -330 -143 -129 -80 -115 -87 -56 -74 -154 -131 -177 -352 -147 -147 -157 -108 -190 -225 -184 -167 -91 -57 -35 -51 -53 -52 -137 -80 -80 -45 -46 -25 -31 -20 -36 -32 -15 -23 -37 -34
-51 -36 -190 -78 -107 -79 -313 -394 -0 -0 -103 -244 -67 -101 -102 -96 -134 -128 -292 -253 -380 -0 -280 -189 -191 -161 -116 -112 -99 -44 -36 -42 -35 -28 -37 -65 -26 -23 -16 -19 -20 -15 -6 -7 -15 -18 -11 -83 -55
-0 -35 -11 -4 -41 -39 -35 -96 -201 -192 -121 -134 -225 -94 -58 -88 -102 -199 -448 -384 -445 -517 -412 -477 -120 -367 -74 -86 -37 -118 -153 -52 -46 -32 -109 -62 -31 -19 -12 -14 -8 -8 -13 -7 -10 -13 -10 -13 -21
-0 -2 -13 -12 -16 -17 -19 -117 -266 -350 -14 -269 -0 -174 -138 -116 -136 -279 -374 -413 -348 -391 -451 -0 -181 -416 -136 -128 -104 -70 -70 -153 -108 -155 -206 -193 -46 -55 -43 -33 -6 -20 -67 -50 -13 -18 -8 -16 -5
-0 -0 -0 -0 -0 -0 -68 -166 -223 -325 -372 -402 -182 -91 -394 -220 -118 -336 -437 -620 -651 -603 -519 -620 -524 -321 -137 -156 -162 -169 -159 -132 -118 -149 -117 -82 -56 -95 -151 -149 -130 -99 -99 -119 -113 -119 -4 -3 -6
-0 -0 -0 -0 -0 -0 -59 -119 -229 -428 -375 -488 -284 -320 -463 -59 -143 -264 -408 -412 -430 -497 -432 -323 -116 -59 -152 -326 -178 -241 -0 -39 -52 -52 -72 -59 -47 -0 -0 -0 -0 -0 -0 -0 -0 -0 -30 -40 -24
-0 -0 -0 -0 -0 -38 -122 -219 -257 -420 -429 -577 -535 -53 -404 -398 -146 -394 -369 -340 -147 -101 -82 -86 -75 -100 -148 -125 -97 -88 -58 -56 -100 -136 -291 -0 -0 -0 -0 -0 -0 -0 -0 -0 -0 -0 -1 -0 -0
-0 -0 -0 -0 -0 -0 -105 -392 -426 -416 -349 -156 -206 -354 -299 -214 -220 -386 -382 -299 -139 -131 -115 -135 -113 -132 -120 -54 -84 -65 -84 -127 -0 -0 -0 -0 -0 -0 -0 -0 -0 -0 -0 -0 -0 -0 -0 -0 -0
-0 -0 -0 -0 -0 -0 -0 -318 -305 -428 -532 -434 -17 -165 -186 -164 -303 -318 -295 -182 -162 -150 -143 -122 -89 -59 -57 -67 -82 -130 -201 -0 -0 -0 -0 -0 -0 -0 -0 -0 -0 -0 -0 -0 -0 -0 -0 -0 -0
-0 -0 -0 -0 -0 -0 -0 -51 -333 -493 -493 -81 -0 -109 -171 -170 -277 -252 -278 -275 -245 -223 -222 -161 -107 -95 -145 -149 -151 -294 -17 -0 -0 -0 -0 -0 -0 -0 -0 -0 -0 -0 -0 -0 -0 -0 -0 -0 -17
-0 -0 -0 -0 -0 -0 -0 -87 -245 -566 -539 -521 -372 -91 -122 -169 -199 -314 -313 -313 -310 -269 -241 -225 -197 -180 -237 -392 -26 -0 -0 -0 -0 -0 -0 -0 -0 -0 -0 -0 -0 -0 -0 -0 -0 -0 -0 -0 -0
Wind_Speed
13 10 3 4 2 5 3 4 7 18 15 13 19 12 19 12 7 3 8 12 12 10 7 5 9 11 12 13 12 12 12 11 10 10 9 9 10 9 10 10 8 11 11 10 9 9 10 10 9
9 12 3 3 4 6 2 12 10 18 22 20 17 17 13 4 9 12 11 7 11 9 6 6 9 11 14 13 13 12 12 10 10 10 10 10 7 9 8 9 7 9 10 9 11 10 10 9 8
6 9 0 2 3 7 6 9 7 14 20 18 14 12 5 4 10 4 12 10 7 6 6 8 11 12 14 13 13 12 11 10 8 9 9 9 9 8 10 8 6 9 8 8 10 10 10 9 7
6 2 4 2 12 7 7 5 7 24 17 13 13 9 5 10 4 9 15 11 9 8 10 11 12 13 13 14 13 12 10 10 8 7 8 8 9 9 10 10 9 8 7 9 10 9 9 8 6
6 3 3 10 11 6 3 10 20 21 19 19 12 7 7 6 19 18 15 11 8 8 9 9 10 12 12 13 13 12 10 9 8 6 7 7 8 10 9 9 9 8 8 8 9 9 8 8 7
2 1 2 7 9 4 3 10 25 21 22 22 18 12 4 13 18 15 11 9 8 14 12 10 12 12 12 12 14 12 11 10 9 8 8 9 8 10 9 8 9 9 7 9 7 7 6 6 6
4 4 7 10 8 8 12 21 20 21 7 10 17 9 7 11 15 13 10 5 6 2 12 10 8 10 13 11 12 12 11 10 9 8 8 7 10 8 8 9 8 8 7 6 6 5 5 3 3
3 5 11 7 5 4 10 14 24 25 11 20 17 8 12 14 17 14 10 7 6 2 10 10 7 5 5 5 12 11 10 11 10 10 10 9 10 9 7 5 9 8 7 6 5 4 5 4 3
4 7 7 6 5 5 10 11 5 16 19 14 5 17 18 20 16 11 10 7 4 4 1 10 11 10 8 6 7 11 13 12 11 10 11 10 4 6 6 6 7 8 7 7 7 6 6 6 7
11 8 9 10 10 6 12 9 7 9 19 19 21 20 21 21 18 13 13 14 7 6 6 5 11 13 9 6 3 3 3 3 4 5 6 5 6 6 6 7 10 9 9 8 8 8 8 7 3
8 10 6 9 12 10 11 9 9 17 20 23 27 24 23 20 16 15 13 15 18 13 11 9 12 8 10 6 1 1 3 3 3 6 6 5 5 5 3 2 3 3 8 2 1 3 1 3 2
17 13 10 9 5 7 10 11 9 8 19 23 24 25 22 19 16 14 13 13 13 11 13 7 12 13 8 5 5 5 4 5 4 5 6 2 2 3 4 3 4 4 3 4 3 3 4 6 5
24 12 10 8 12 11 12 8 6 17 19 20 19 23 20 19 19 14 16 12 8 14 16 10 13 10 9 6 4 5 4 3 2 5 6 4 2 2 4 4 4 4 3 3 4 4 4 5 7
15 20 15 4 12 11 11 7 6 13 18 19 17 13 17 21 18 16 13 15 8 9 11 14 11 8 9 6 5 4 3 4 4 3 4 4 3 3 4 4 5 4 3 4 5 5 4 6 5
22 11 10 6 9 3 8 8 5 13 16 16 14 12 13 11 15 14 14 15 13 9 12 11 12 11 8 7 3 3 4 5 4 5 5 4 3 5 4 2 3 4 4 5 3 4 4 5 3
15 13 7 7 8 11 6 6 6 11 15 14 13 12 11 10 11 9 11 12 10 9 15 12 11 10 9 7 5 3 1 2 3 2 3 5 5 3 2 3 3 3 3 4 3 4 3 4 4
1 7 8 12 14 8 6 9 10 7 11 11 12 9 8 8 11 8 14 10 13 11 10 11 14 13 9 7 5 4 4 2 2 3 3 2 4 4 3 1 2 3 3 3 3 2 3 3 4
4 4 10 11 16 18 16 30 23 7 13 13 10 9 8 6 11 10 14 14 14 13 7 8 10 10 8 6 4 0 3 3 3 4 3 3 2 3 1 2 3 1 2 3 3 4 3 4 4
6 5 8 17 16 6 23 26 31 23 6 14 13 11 11 10 13 6 10 14 11 7 7 10 11 10 9 3 3 1 3 3 3 4 6 5 4 4 4 3 3 2 3 4 5 3 4 3 4
18 14 10 7 12 15 18 23 23 17 7 7 14 15 14 13 16 9 10 17 13 8 2 4 5 12 8 4 4 3 3 3 3 3 4 5 6 6 5 5 4 5 3 5 5 4 1 2 1
12 17 16 16 10 3 16 4 5 12 11 7 11 17 14 15 18 13 15 18 20 17 12 7 6 4 10 9 4 4 3 1 1 2 2 4 6 7 6 6 4 4 3 1 0 3 1 1 2
6 11 4 7 5 4 4 4 7 4 5 15 7 9 14 18 19 16 16 15 18 13 7 5 6 2 6 5 2 9 5 4 3 4 2 2 5 5 6 3 3 3 1 2 1 2 2 2 3
12 9 6 3 4 1 5 8 7 7 6 7 5 4 8 20 20 18 18 16 14 9 8 7 6 2 6 8 10 3 6 3 2 3 5 3 1 8 5 5 6 4 4 4 5 4 4 1 2
9 4 8 6 2 3 6 8 6 4 9 4 5 3 4 11 19 17 17 18 14 10 7 4 6 5 6 7 6 6 6 3 1 2 1 1 4 2 5 7 6 5 5 5 4 4 4 4 3
6 3 4 6 5 7 7 8 9 12 13 6 10 11 1 4 10 17 19 14 13 12 8 6 8 7 8 8 6 4 4 1 4 1 3 5 5 3 5 5 5 3 4 6 5 5 4 3 2
9 8 7 7 4 4 3 6 7 14 7 1 11 19 13 18 16 16 15 8 8 16 14 12 10 9 8 7 7 6 4 4 3 6 6 6 5 4 6 6 5 7 8 7 6 4 3 5 5
9 6 8 6 9 1 6 4 9 3 6 8 8 30 23 12 17 18 15 9 8 14 13 12 11 7 7 7 6 5 4 7 7 7 7 5 5 5 6 6 8 7 6 6 5 4 5 5 5
11 8 5 5 5 6 7 10 8 10 8 5 5 8 17 21 19 17 16 14 13 14 13 10 9 7 6 7 6 6 6 7 7 6 7 7 6 6 7 6 6 6 6 5 6 5 4 5 4
3 4 5 2 4 4 2 5 10 15 11 14 16 16 24 21 22 17 16 16 15 14 14 12 9 9 10 9 8 7 6 6 7 6 6 6 6 7 6 5 6 6 7 6 7 6 5 6 4
10 11 10 7 11 4 5 6 13 17 17 15 12 17 20 19 18 17 17 17 15 14 11 13 10 8 9 8 8 7 7 7 7 6 7 6 6 5 5 5 7 7 7 7 7 7 5 7 9
Wind_Direction
165 172 194 213 350 86 9 82 45 86 70 101 138 178 170 148 150 194 110 136 130 147 137 149 132 133 127 127 123 117 107 104 108 104 105 96 92 96 102 110 116 115 113 118 112 105 105 107 106
185 175 190 242 83 84 216 115 133 96 105 115 104 116 98 120 82 115 104 136 128 129 147 125 124 131 132 130 123 117 114 112 115 105 104 98 108 100 98 105 109 102 113 126 117 116 115 111 116
243 275 202 131 72 81 3 87 117 116 128 125 96 97 94 83 97 91 132 139 128 137 134 130 120 128 134 134 125 125 122 112 106 111 110 116 115 108 123 110 116 120 126 118 120 114 110 112 104
140 290 269 88 63 17 124 209 94 93 79 82 104 74 58 99 99 121 133 144 151 170 126 133 131 128 126 129 130 130 129 119 109 105 112 126 130 126 120 121 117 120 120 119 118 115 109 106 93
206 249 342 78 84 234 144 122 103 102 96 94 98 100 95 97 105 125 140 162 170 125 129 129 142 136 136 132 130 136 134 127 118 128 120 131 142 130 126 126 127 127 131 132 131 126 113 103 91
315 183 29 67 69 174 60 101 94 88 89 98 93 106 133 131 123 138 156 159 148 134 140 147 154 152 146 149 145 144 138 138 141 136 135 150 141 140 142 142 136 139 153 146 143 132 118 106 99
238 193 99 82 58 34 49 87 100 109 138 123 127 120 133 129 138 155 162 121 66 95 141 144 161 155 153 151 144 154 151 146 145 151 144 157 152 146 146 153 153 149 147 140 147 149 143 130 122
251 113 90 100 113 128 71 74 124 128 165 127 133 154 156 151 156 161 130 119 133 202 149 155 147 127 134 154 163 166 162 158 161 162 160 155 160 155 158 149 158 151 157 164 180 188 192 203 234
223 65 69 73 103 102 88 84 68 126 144 166 145 135 152 147 145 138 125 133 195 253 163 157 160 163 169 178 181 176 175 175 176 167 165 160 175 179 184 172 162 156 173 179 195 200 218 235 248
91 74 75 96 99 121 122 142 153 122 124 118 122 129 139 151 151 160 159 155 200 189 223 188 181 174 158 151 198 211 215 189 187 179 174 182 182 190 179 186 169 172 180 190 210 211 221 240 235
101 110 91 62 129 145 155 150 130 118 124 140 141 150 155 156 166 165 176 158 176 194 202 191 193 139 132 148 258 327 237 206 210 190 197 210 193 182 162 181 187 189 188 167 30 292 305 20 334
103 107 106 106 123 92 71 134 86 171 142 140 147 156 160 166 170 177 188 174 173 184 209 157 132 125 145 133 142 243 216 211 195 190 205 217 211 187 164 171 205 180 179 184 196 200 201 248 270
270 124 120 138 93 84 86 91 94 111 125 127 137 162 169 174 174 178 183 175 196 164 181 155 135 139 154 168 151 206 204 150 155 196 194 168 222 190 169 187 186 196 162 180 197 219 211 250 248
120 36 7 139 125 141 124 121 111 121 128 136 155 169 175 175 181 174 187 156 146 140 122 126 133 140 146 156 173 170 101 160 192 186 212 210 185 181 162 183 193 196 194 191 199 205 222 245 244
50 129 11 356 319 156 109 58 126 133 134 145 169 180 182 173 174 161 168 151 155 153 139 140 140 145 143 145 173 155 167 147 170 181 198 218 196 187 194 190 204 207 191 144 188 205 224 231 261
73 65 357 343 339 318 93 212 169 144 148 157 180 192 174 183 164 145 153 149 144 150 149 156 155 151 155 161 170 158 190 131 171 146 170 211 215 192 172 201 220 219 208 202 199 223 245 242 214
97 178 195 327 290 279 344 360 302 143 160 175 185 195 174 159 162 155 159 132 155 138 156 170 155 160 163 159 139 173 200 194 199 141 107 81 198 214 173 179 245 222 221 226 236 227 215 257 254
204 162 181 167 258 240 86 50 332 262 182 187 194 167 167 176 157 159 161 140 143 164 178 144 151 148 155 125 126 315 207 201 174 159 179 170 148 117 145 252 212 223 249 239 234 245 205 225 250
164 230 188 207 229 75 132 142 212 230 182 190 191 169 173 179 145 188 123 147 147 151 149 145 137 155 145 139 139 198 223 193 194 197 196 210 209 202 229 256 249 224 245 241 221 210 232 259 222
152 208 227 304 249 127 156 178 194 221 257 221 184 173 184 177 143 167 107 98 48 35 347 126 157 159 175 162 152 136 145 200 205 217 197 203 211 216 211 225 242 229 243 250 237 218 231 258 168
193 209 213 209 232 304 122 81 171 252 254 322 246 180 187 168 147 157 134 134 136 182 221 170 136 231 185 178 125 148 96 329 126 270 175 222 208 199 211 226 217 243 244 275 84 240 228 231 298
284 227 237 207 103 194 150 101 182 226 197 184 281 190 192 159 152 156 144 149 166 211 202 208 175 196 265 81 156 119 146 229 193 185 167 158 249 210 220 195 192 218 186 27 340 331 248 222 260
246 259 295 237 249 337 294 95 273 257 232 338 298 256 325 165 158 145 154 162 170 191 210 190 160 191 261 128 176 142 143 143 223 157 185 183 270 52 34 52 48 46 50 37 39 7 345 320 276
283 319 321 324 159 33 166 116 276 234 221 243 246 209 0 326 158 139 152 155 171 191 191 130 155 249 114 106 96 88 77 134 91 56 4 44 77 69 55 45 39 30 36 33 35 356 357 15 349
290 297 332 335 349 227 142 89 217 221 253 225 329 306 18 333 196 147 150 167 179 186 175 184 143 117 113 113 99 110 126 119 100 114 93 81 84 61 52 52 40 26 35 41 18 4 29 27 15
236 192 159 227 245 240 360 148 244 223 306 175 105 257 274 278 192 143 150 157 144 134 144 128 124 112 107 117 99 92 78 79 76 47 78 75 85 68 49 44 37 28 38 26 3 354 34 27 15
276 302 231 237 265 334 163 24 341 219 248 200 190 209 218 212 158 146 149 153 131 116 128 130 125 127 143 136 124 117 82 92 87 71 73 75 68 70 50 39 55 62 49 40 24 21 23 25 23
171 214 305 329 210 255 273 172 203 182 216 238 247 263 183 171 153 153 152 132 119 121 123 121 127 142 129 124 123 123 124 107 96 84 87 80 73 67 55 66 55 64 41 22 25 8 9 39 15
235 198 256 220 163 179 281 277 178 176 176 205 233 154 157 162 150 154 135 132 124 126 129 129 117 133 132 136 137 115 97 97 96 92 86 91 76 81 70 70 53 60 43 24 20 6 8 23 30
184 183 187 137 283 230 172 296 157 180 199 191 213 142 155 149 151 136 135 129 129 126 131 130 138 141 128 120 112 113 112 100 91 95 87 83 84 89 67 66 62 63 38 21 13 357 8 27 29